[Date Prev][Date Next][Thread Prev][Thread Next] - [Date Index][Thread Index][Author Index]

2 Line ISS Keps 10-31



ISS
1 25544U 98067A   02304.16309028  .00031658  00000-0  42329-3 0  3190
2 25544  51.6360  90.1940 0015082  89.0971 265.5394 15.57618444225172


----
Via the sarex mailing list at AMSAT.ORG courtesy of AMSAT-NA.
To unsubscribe, send "unsubscribe sarex" to Majordomo@amsat.org



AMSAT Top AMSAT Home